TimeEDT,TemperatureF,Dew PointF,Humidity,Sea Level PressureIn,VisibilityMPH,Wind Direction,Wind SpeedMPH,Gust SpeedMPH,PrecipitationIn,Events,Conditions,WindDirDegrees,DateUTC
12:15 AM,42.1,39.2,90,29.87,10.0,Calm,Calm,-,N/A,,Clear,0,2012-10-02 04:15:00
12:35 AM,43.0,40.3,90,29.87,10.0,Calm,Calm,-,N/A,,Clear,0,2012-10-02 04:35:00
12:55 AM,45.5,42.8,90,29.87,10.0,Calm,Calm,-,N/A,,Clear,0,2012-10-02 04:55:00
1:15 AM,45.5,42.8,90,29.86,10.0,Calm,Calm,-,N/A,,Clear,0,2012-10-02 05:15:00
1:35 AM,45.5,42.8,90,29.86,10.0,Calm,Calm,-,N/A,,Clear,0,2012-10-02 05:35:00
1:56 AM,43.0,40.1,90,29.86,10.0,Calm,Calm,-,N/A,,Clear,0,2012-10-02 05:56:00
2:15 AM,43.0,40.3,90,29.86,10.0,Calm,Calm,-,N/A,,Clear,0,2012-10-02 06:15:00
2:55 AM,44.8,41.9,90,29.87,10.0,Calm,Calm,-,N/A,,Clear,0,2012-10-02 06:55:00
3:15 AM,45.5,42.8,90,29.86,10.0,Calm,Calm,-,N/A,,Clear,0,2012-10-02 07:15:00
3:35 AM,45.5,42.4,89,29.86,10.0,Calm,Calm,-,N/A,,Clear,0,2012-10-02 07:35:00
3:55 AM,45.5,42.3,88,29.86,10.0,Calm,Calm,-,N/A,,Clear,0,2012-10-02 07:55:00
4:15 AM,45.3,42.1,88,29.86,10.0,Calm,Calm,-,N/A,,Clear,0,2012-10-02 08:15:00
4:35 AM,42.1,39.0,89,29.86,10.0,Calm,Calm,-,N/A,,Clear,0,2012-10-02 08:35:00
4:55 AM,42.8,39.9,90,29.87,10.0,Calm,Calm,-,N/A,,Clear,0,2012-10-02 08:55:00
5:15 AM,41.5,38.7,89,29.87,7.0,Calm,Calm,-,N/A,,Clear,0,2012-10-02 09:15:00
5:35 AM,40.5,37.8,90,29.87,3.0,Calm,Calm,-,N/A,,Clear,0,2012-10-02 09:35:00
5:55 AM,40.1,37.4,90,29.88,0.2,Calm,Calm,-,N/A,Fog,Fog,0,2012-10-02 09:55:00
6:35 AM,38.3,35.6,90,29.88,2.0,Calm,Calm,-,N/A,,Clear,0,2012-10-02 10:35:00
6:55 AM,38.3,35.6,90,29.89,1.5,Calm,Calm,-,N/A,,Mist,0,2012-10-02 10:55:00
7:15 AM,37.6,34.9,90,29.88,2.0,East,3.5,-,N/A,,Clear,100,2012-10-02 11:15:00
7:35 AM,38.3,35.6,90,29.90,10.0,Calm,Calm,-,N/A,,Clear,0,2012-10-02 11:35:00
7:55 AM,39.2,36.7,91,29.90,7.0,Calm,Calm,-,N/A,,Clear,0,2012-10-02 11:55:00
8:16 AM,38.3,35.6,90,29.91,4.0,North,3.5,-,N/A,,Clear,350,2012-10-02 12:16:00
8:35 AM,39.2,36.7,91,29.91,10.0,North,6.9,-,N/A,,Clear,350,2012-10-02 12:35:00
8:55 AM,41.2,38.7,91,29.91,10.0,Calm,Calm,-,N/A,,Clear,0,2012-10-02 12:55:00
9:16 AM,44.6,42.3,91,29.91,10.0,Calm,Calm,-,N/A,,Clear,0,2012-10-02 13:16:00
9:35 AM,48.2,45.0,89,29.91,10.0,ESE,3.5,-,N/A,,Clear,120,2012-10-02 13:35:00
9:55 AM,52.5,46.2,79,29.90,10.0,Calm,Calm,-,N/A,,Clear,0,2012-10-02 13:55:00
10:15 AM,55.6,46.4,71,29.91,10.0,East,3.5,-,N/A,,Clear,80,2012-10-02 14:15:00
10:35 AM,57.7,46.2,65,29.92,10.0,East,4.6,-,N/A,,Clear,100,2012-10-02 14:35:00
10:55 AM,58.3,46.2,64,29.92,10.0,East,5.8,-,N/A,,Clear,100,2012-10-02 14:55:00
11:15 AM,59.4,43.9,57,29.92,10.0,East,5.8,-,N/A,,Clear,90,2012-10-02 15:15:00
11:35 AM,60.8,41.2,48,29.92,10.0,ENE,4.6,-,N/A,,Clear,60,2012-10-02 15:35:00
11:55 AM,61.7,33.8,35,29.92,10.0,Calm,Calm,-,N/A,,Clear,0,2012-10-02 15:55:00
12:15 PM,63.1,36.3,37,29.92,10.0,East,3.5,-,N/A,,Clear,90,2012-10-02 16:15:00
12:35 PM,63.5,34.2,33,29.92,10.0,Calm,Calm,-,N/A,,Clear,0,2012-10-02 16:35:00
12:55 PM,65.7,38.7,37,29.92,10.0,Calm,Calm,-,N/A,,Clear,0,2012-10-02 16:55:00
1:15 PM,66.9,36.9,33,29.92,10.0,NE,4.6,-,N/A,,Clear,40,2012-10-02 17:15:00
1:35 PM,68.2,35.8,30,29.91,10.0,ENE,6.9,-,N/A,,Clear,60,2012-10-02 17:35:00
1:55 PM,68.2,33.8,28,29.90,10.0,NE,4.6,-,N/A,,Clear,40,2012-10-02 17:55:00
2:15 PM,68.2,34.2,28,29.90,10.0,East,5.8,-,N/A,,Clear,80,2012-10-02 18:15:00
2:35 PM,68.2,33.3,27,29.90,10.0,East,5.8,-,N/A,,Clear,90,2012-10-02 18:35:00
2:55 PM,68.2,34.0,28,29.89,10.0,ENE,4.6,-,N/A,,Clear,60,2012-10-02 18:55:00
3:15 PM,68.2,54.0,60,29.88,10.0,NNW,5.8,-,N/A,,Clear,330,2012-10-02 19:15:00
3:35 PM,68.2,52.3,57,29.88,10.0,NNW,10.4,-,N/A,,Clear,340,2012-10-02 19:35:00
3:55 PM,68.2,54.1,61,29.88,10.0,NW,10.4,-,N/A,,Clear,320,2012-10-02 19:55:00
4:15 PM,65.8,52.0,61,29.88,10.0,North,10.4,-,N/A,,Clear,350,2012-10-02 20:15:00
4:36 PM,65.3,51.6,61,29.88,10.0,North,12.7,-,N/A,,Clear,350,2012-10-02 20:36:00
4:55 PM,63.1,50.0,62,29.88,10.0,North,9.2,-,N/A,,Clear,350,2012-10-02 20:55:00
5:15 PM,63.1,50.9,64,29.88,10.0,North,10.4,-,N/A,,Clear,350,2012-10-02 21:15:00
5:36 PM,61.7,50.0,65,29.88,10.0,North,11.5,-,N/A,,Clear,350,2012-10-02 21:36:00
5:55 PM,61.2,49.6,66,29.88,10.0,North,11.5,-,N/A,,Clear,350,2012-10-02 21:55:00
6:15 PM,60.8,50.2,68,29.89,10.0,North,11.5,-,N/A,,Clear,350,2012-10-02 22:15:00
6:35 PM,59.4,50.0,71,29.89,10.0,North,11.5,-,N/A,,Clear,360,2012-10-02 22:35:00
6:55 PM,58.1,50.2,75,29.90,10.0,North,9.2,-,N/A,,Clear,360,2012-10-02 22:55:00
7:15 PM,56.8,50.5,79,29.90,10.0,North,6.9,-,N/A,,Clear,360,2012-10-02 23:15:00
7:35 PM,55.6,50.5,83,29.90,10.0,North,6.9,-,N/A,,Clear,10,2012-10-02 23:35:00
7:55 PM,55.6,50.9,84,29.90,10.0,North,6.9,-,N/A,,Clear,10,2012-10-02 23:55:00
8:15 PM,55.6,50.9,84,29.91,10.0,North,6.9,-,N/A,,Clear,10,2012-10-03 00:15:00
8:35 PM,55.6,51.3,85,29.91,10.0,North,5.8,-,N/A,,Clear,10,2012-10-03 00:35:00
8:55 PM,54.1,49.8,85,29.92,10.0,North,5.8,-,N/A,,Clear,10,2012-10-03 00:55:00
9:15 PM,53.4,49.3,86,29.92,10.0,NNE,5.8,-,N/A,,Clear,20,2012-10-03 01:15:00
9:35 PM,53.1,49.1,86,29.93,10.0,NNE,4.6,-,N/A,,Clear,20,2012-10-03 01:35:00
9:55 PM,53.1,49.1,86,29.93,10.0,NNE,3.5,-,N/A,,Clear,20,2012-10-03 01:55:00
10:15 PM,53.1,49.1,86,29.94,10.0,NE,3.5,-,N/A,,Clear,50,2012-10-03 02:15:00
10:35 PM,53.1,49.1,86,29.95,10.0,East,5.8,-,N/A,,Clear,80,2012-10-03 02:35:00
10:55 PM,49.8,46.4,88,29.95,10.0,ENE,4.6,-,N/A,,Clear,70,2012-10-03 02:55:00
11:16 PM,50.4,47.3,89,29.95,10.0,Calm,Calm,-,N/A,,Clear,0,2012-10-03 03:16:00
11:35 PM,50.5,47.5,89,29.95,10.0,Calm,Calm,-,N/A,,Clear,0,2012-10-03 03:35:00
11:55 PM,48.2,45.0,89,29.95,5.0,Calm,Calm,-,N/A,,Clear,0,2012-10-03 03:55:00